Precipitable_Water
0.58 0.56 0.55 0.56 0.58 0.58 0.58 0.57 0.57 0.56 0.56 0.56 0.55 0.54 0.53 0.52 0.50 0.49 0.48 0.47 0.46 0.45 0.44 0.45 0.47 0.48 0.49 0.51 0.52 0.52 0.52 0.38 0.27 0.20 0.17 0.13 0.16 0.19 0.28 0.26 0.37 0.50 0.61 0.51 0.57 0.48 0.41 0.50 0.64 0.85 0.95 0.96 0.95 1.00 1.23 1.23 1.30 1.23 0.93 0.88 0.81 0.88 0.85 1.02 1.00 1.08 1.22 1.19 1.33 1.37 1.44 1.35 1.25 1.39 1.42 1.34 1.12 1.02 0.98 0.92 0.98 1.07 1.07 1.13 1.24 1.36 1.44 1.48
0.59 0.57 0.55 0.54 0.55 0.58 0.59 0.60 0.60 0.59 0.57 0.57 0.57 0.57 0.55 0.53 0.51 0.50 0.49 0.48 0.47 0.45 0.43 0.43 0.43 0.44 0.48 0.48 0.50 0.53 0.48 0.37 0.26 0.24 0.17 0.21 0.22 0.20 0.25 0.28 0.46 0.46 0.56 0.37 0.41 0.41 0.37 0.46 0.68 0.84 0.87 0.80 1.10 0.98 1.21 1.08 1.29 1.01 0.93 0.89 0.78 0.91 0.97 1.11 1.12 1.17 1.15 1.15 1.31 1.41 1.49 1.40 1.33 1.39 1.41 1.13 0.99 0.92 0.85 0.86 0.91 0.95 1.04 1.18 1.28 1.38 1.41 1.45
0.60 0.58 0.56 0.54 0.53 0.55 0.58 0.59 0.60 0.60 0.60 0.59 0.58 0.57 0.57 0.55 0.52 0.50 0.49 0.48 0.47 0.45 0.44 0.43 0.42 0.41 0.42 0.47 0.49 0.50 0.43 0.31 0.30 0.21 0.30 0.39 0.32 0.23 0.22 0.30 0.49 0.46 0.38 0.29 0.40 0.44 0.38 0.53 0.73 0.81 0.85 0.81 0.97 0.91 1.05 1.02 1.12 1.12 0.96 0.81 0.84 1.04 1.07 1.15 1.20 1.17 1.26 1.28 1.27 1.33 1.46 1.44 1.43 1.42 1.48 1.16 0.98 0.91 0.76 0.72 0.83 0.88 0.87 1.06 1.21 1.34 1.37 1.40
0.60 0.58 0.56 0.54 0.53 0.53 0.56 0.58 0.59 0.59 0.60 0.60 0.59 0.57 0.55 0.54 0.52 0.50 0.49 0.48 0.47 0.46 0.44 0.42 0.41 0.42 0.42 0.42 0.46 0.48 0.37 0.27 0.21 0.36 0.48 0.50 0.39 0.25 0.23 0.34 0.47 0.46 0.39 0.32 0.35 0.46 0.47 0.64 0.75 0.83 0.78 0.81 0.87 0.94 0.87 1.04 0.90 1.10 0.98 0.83 0.91 1.11 1.02 1.13 1.23 1.23 1.29 1.33 1.26 1.27 1.41 1.39 1.44 1.48 1.40 1.22 0.98 0.85 0.81 0.84 0.76 0.82 0.90 1.05 1.20 1.29 1.33 1.34
0.58 0.57 0.55 0.53 0.51 0.51 0.54 0.56 0.58 0.59 0.60 0.60 0.59 0.57 0.55 0.53 0.51 0.49 0.49 0.48 0.47 0.45 0.43 0.42 0.41 0.42 0.42 0.43 0.43 0.44 0.25 0.18 0.26 0.45 0.53 0.55 0.44 0.28 0.28 0.36 0.48 0.44 0.36 0.32 0.32 0.44 0.45 0.56 0.70 0.67 0.73 0.73 0.85 0.84 0.80 0.94 1.06 1.03 0.92 1.05 1.09 1.15 1.03 1.23 1.31 1.35 1.34 1.44 1.42 1.43 1.29 1.30 1.54 1.49 1.38 1.22 0.94 0.74 0.76 0.86 0.93 0.96 1.00 1.09 1.17 1.26 1.31 1.32
0.56 0.55 0.54 0.51 0.50 0.50 0.52 0.55 0.57 0.58 0.59 0.59 0.58 0.57 0.55 0.53 0.51 0.49 0.48 0.48 0.47 0.45 0.43 0.42 0.42 0.42 0.42 0.44 0.43 0.36 0.19 0.15 0.42 0.41 0.68 0.62 0.53 0.34 0.32 0.37 0.44 0.33 0.30 0.28 0.26 0.35 0.36 0.44 0.59 0.55 0.66 0.73 0.73 0.70 0.75 0.84 1.05 0.77 0.99 1.08 1.17 1.22 1.13 1.34 1.39 1.41 1.43 1.39 1.37 1.30 1.42 1.49 1.39 1.38 1.41 1.27 1.06 1.01 1.08 1.04 1.04 1.06 1.11 1.22 1.30 1.28 1.25 1.27
0.54 0.52 0.51 0.49 0.48 0.48 0.50 0.53 0.55 0.57 0.58 0.58 0.57 0.57 0.54 0.52 0.50 0.49 0.48 0.47 0.46 0.44 0.43 0.42 0.42 0.43 0.43 0.44 0.41 0.28 0.14 0.24 0.38 0.39 0.60 0.67 0.59 0.41 0.35 0.41 0.44 0.28 0.24 0.21 0.24 0.28 0.31 0.36 0.44 0.49 0.66 0.69 0.71 0.70 0.76 0.87 1.04 0.90 0.83 1.09 1.13 1.28 1.23 1.38 1.37 1.47 1.48 1.41 1.41 1.60 1.64 1.41 1.38 1.24 1.43 1.23 1.22 1.18 1.14 1.14 1.14 1.11 1.20 1.27 1.22 1.24 1.21 1.23
0.52 0.50 0.49 0.47 0.46 0.46 0.48 0.51 0.54 0.56 0.56 0.56 0.57 0.56 0.55 0.51 0.49 0.48 0.48 0.47 0.46 0.45 0.44 0.43 0.43 0.44 0.45 0.36 0.22 0.11 0.13 0.30 0.51 0.78 0.76 0.73 0.65 0.49 0.40 0.41 0.38 0.30 0.23 0.19 0.22 0.23 0.33 0.42 0.42 0.64 0.67 0.60 0.65 0.67 0.93 0.94 1.01 0.86 0.87 1.09 1.19 1.28 1.32 1.42 1.51 1.59 1.69 1.76 1.78 1.71 1.51 1.43 1.45 1.38 1.38 1.24 1.21 1.19 1.15 1.19 1.17 1.11 1.14 1.21 1.21 1.19 1.21 1.23
0.50 0.49 0.48 0.46 0.46 0.46 0.47 0.50 0.53 0.55 0.54 0.55 0.56 0.55 0.55 0.53 0.51 0.48 0.47 0.47 0.46 0.46 0.45 0.44 0.44 0.45 0.48 0.34 0.15 0.12 0.14 0.48 0.69 0.79 0.81 0.73 0.64 0.53 0.41 0.28 0.34 0.28 0.24 0.21 0.23 0.24 0.37 0.49 0.63 0.73 0.63 0.61 0.65 0.57 0.73 0.83 0.77 0.98 1.01 1.19 1.23 1.22 1.34 1.48 1.53 1.54 1.60 1.68 1.73 1.57 1.48 1.50 1.49 1.53 1.32 1.33 1.19 1.20 1.20 1.18 1.12 1.08 1.07 1.10 1.15 1.18 1.19 1.22
0.48 0.47 0.46 0.45 0.45 0.45 0.47 0.50 0.52 0.53 0.53 0.54 0.54 0.53 0.53 0.53 0.52 0.51 0.49 0.48 0.47 0.47 0.46 0.45 0.46 0.47 0.38 0.23 0.14 0.13 0.32 0.66 0.70 0.72 0.71 0.69 0.63 0.52 0.43 0.35 0.28 0.25 0.21 0.20 0.21 0.25 0.37 0.52 0.67 0.83 0.77 0.65 0.65 0.56 0.74 0.81 0.80 1.15 1.15 1.21 1.20 1.27 1.36 1.48 1.43 1.48 1.58 1.63 1.70 1.50 1.40 1.41 1.51 1.40 1.15 1.38 1.26 1.22 1.18 1.15 1.12 1.04 1.01 1.07 1.11 1.15 1.20 1.21
0.48 0.47 0.46 0.45 0.44 0.45 0.47 0.50 0.52 0.52 0.52 0.53 0.52 0.52 0.53 0.55 0.55 0.54 0.54 0.51 0.49 0.49 0.48 0.47 0.50 0.48 0.29 0.24 0.11 0.16 0.43 0.60 0.58 0.61 0.62 0.60 0.56 0.45 0.39 0.37 0.33 0.24 0.21 0.20 0.19 0.25 0.43 0.62 0.75 0.82 0.72 0.58 0.63 0.80 0.86 0.87 1.11 1.12 1.17 1.25 1.25 1.28 1.35 1.44 1.49 1.47 1.56 1.48 1.63 1.49 1.34 1.44 1.48 1.39 1.22 1.30 1.30 1.23 1.12 1.13 1.08 1.04 1.02 1.06 1.09 1.11 1.17 1.21
0.47 0.47 0.46 0.45 0.45 0.45 0.47 0.50 0.51 0.52 0.51 0.51 0.53 0.55 0.56 0.56 0.56 0.55 0.55 0.54 0.52 0.50 0.48 0.51 0.52 0.48 0.41 0.25 0.14 0.18 0.55 0.50 0.55 0.52 0.54 0.54 0.51 0.47 0.43 0.38 0.34 0.28 0.22 0.17 0.18 0.25 0.45 0.63 0.72 0.76 0.59 0.66 0.53 0.74 0.91 1.20 1.10 1.13 1.18 1.02 1.15 1.23 1.18 1.37 1.34 1.45 1.54 1.36 1.55 1.51 1.30 1.25 1.29 1.19 1.34 1.33 1.31 1.21 1.14 1.10 1.09 1.03 1.02 1.06 1.07 1.09 1.12 1.17
0.47 0.46 0.46 0.46 0.45 0.46 0.48 0.50 0.51 0.51 0.50 0.53 0.56 0.57 0.57 0.56 0.56 0.57 0.57 0.56 0.56 0.56 0.56 0.57 0.57 0.53 0.36 0.15 0.15 0.19 0.36 0.48 0.53 0.53 0.55 0.56 0.52 0.51 0.45 0.38 0.33 0.31 0.27 0.18 0.18 0.26 0.47 0.64 0.68 0.69 0.71 0.56 0.56 0.68 1.11 1.25 1.14 1.18 1.17 1.07 1.03 1.08 1.04 1.30 1.43 1.44 1.44 1.42 1.58 1.55 0.95 1.05 1.19 1.28 1.36 1.38 1.28 1.21 1.13 1.09 1.09 1.06 1.00 1.03 1.03 1.03 1.08 1.19
0.47 0.46 0.46 0.46 0.46 0.47 0.49 0.50 0.50 0.50 0.51 0.55 0.57 0.58 0.58 0.58 0.58 0.59 0.61 0.60 0.61 0.59 0.57 0.58 0.60 0.51 0.34 0.17 0.19 0.28 0.39 0.46 0.50 0.44 0.46 0.54 0.46 0.41 0.40 0.34 0.30 0.28 0.28 0.22 0.21 0.34 0.49 0.59 0.64 0.71 0.69 0.51 0.64 1.17 1.06 1.08 1.15 0.91 1.06 1.10 0.94 0.88 0.92 1.22 1.29 1.38 1.32 1.48 1.51 1.49 0.95 1.00 1.16 1.25 1.37 1.41 1.34 1.16 1.07 1.08 1.11 1.09 0.99 0.98 1.00 1.00 1.04 1.15
0.46 0.46 0.46 0.46 0.46 0.48 0.49 0.50 0.50 0.49 0.52 0.56 0.57 0.59 0.59 0.60 0.61 0.62 0.64 0.64 0.64 0.62 0.60 0.64 0.61 0.42 0.25 0.19 0.29 0.34 0.46 0.53 0.36 0.36 0.43 0.40 0.39 0.33 0.35 0.32 0.25 0.24 0.24 0.23 0.22 0.34 0.56 0.62 0.64 0.57 0.50 0.68 0.88 0.94 0.87 0.90 0.95 0.97 0.77 0.72 0.94 0.85 0.99 1.18 1.33 1.32 1.16 1.38 1.48 1.31 0.92 0.96 1.10 1.21 1.33 1.36 1.31 1.20 1.10 1.08 1.11 1.11 0.99 0.95 0.96 0.97 1.01 1.11
0.47 0.46 0.47 0.46 0.47 0.48 0.50 0.50 0.49 0.50 0.54 0.56 0.56 0.56 0.57 0.60 0.62 0.66 0.71 0.69 0.65 0.63 0.67 0.53 0.51 0.42 0.26 0.17 0.25 0.48 0.42 0.33 0.32 0.39 0.43 0.42 0.36 0.31 0.33 0.29 0.24 0.22 0.23 0.22 0.26 0.36 0.54 0.59 0.56 0.52 0.66 0.78 0.82 0.82 0.79 0.76 0.78 0.87 0.74 0.71 0.76 0.88 0.95 1.03 1.26 1.38 1.36 1.33 1.37 1.21 0.92 1.01 1.03 1.19 1.26 1.31 1.28 1.20 1.12 1.09 1.09 1.09 0.98 0.92 0.93 0.96 1.00 1.07
0.47 0.47 0.47 0.47 0.48 0.49 0.51 0.51 0.49 0.50 0.55 0.56 0.55 0.54 0.56 0.58 0.66 0.74 0.78 0.72 0.65 0.65 0.57 0.42 0.52 0.49 0.21 0.33 0.48 0.37 0.34 0.39 0.44 0.40 0.41 0.45 0.38 0.36 0.31 0.27 0.20 0.18 0.21 0.24 0.30 0.45 0.57 0.56 0.56 0.49 0.77 0.72 0.79 0.83 0.65 0.57 0.57 0.66 0.80 0.70 0.83 0.80 0.92 0.89 1.25 1.37 1.34 1.28 1.11 1.22 1.01 1.01 1.10 1.17 1.19 1.25 1.26 1.18 1.10 1.09 1.07 1.05 0.96 0.92 0.93 0.95 0.98 1.01
0.47 0.47 0.46 0.47 0.48 0.50 0.51 0.51 0.49 0.51 0.55 0.54 0.52 0.53 0.53 0.62 0.68 0.71 0.74 0.69 0.66 0.62 0.61 0.65 0.55 0.36 0.25 0.35 0.29 0.33 0.44 0.44 0.44 0.41 0.38 0.42 0.41 0.37 0.32 0.25 0.21 0.19 0.19 0.21 0.31 0.42 0.55 0.51 0.48 0.39 0.61 0.69 0.68 0.71 0.54 0.38 0.48 0.56 0.66 0.67 0.73 0.87 0.94 0.91 0.94 1.19 1.25 1.26 1.15 1.15 1.07 1.06 1.14 1.17 1.17 1.20 1.22 1.18 1.12 1.10 1.06 1.00 0.94 0.92 0.92 0.93 0.96 1.00
0.48 0.47 0.47 0.47 0.49 0.51 0.52 0.50 0.49 0.52 0.51 0.52 0.54 0.62 0.65 0.63 0.65 0.65 0.56 0.53 0.39 0.34 0.27 0.34 0.30 0.21 0.17 0.31 0.40 0.44 0.45 0.48 0.47 0.40 0.28 0.31 0.39 0.40 0.35 0.32 0.25 0.20 0.17 0.18 0.29 0.43 0.53 0.47 0.43 0.37 0.41 0.52 0.54 0.63 0.58 0.65 0.73 0.73 0.77 0.75 0.77 0.71 0.82 0.87 1.06 1.27 1.24 1.12 1.12 1.09 1.01 1.08 1.14 1.18 1.23 1.20 1.17 1.13 1.13 1.15 1.08 1.01 0.94 0.93 0.93 0.93 0.94 0.99
0.48 0.48 0.47 0.47 0.50 0.52 0.51 0.50 0.49 0.51 0.51 0.50 0.51 0.51 0.48 0.30 0.28 0.29 0.48 0.46 0.32 0.27 0.28 0.32 0.34 0.34 0.35 0.36 0.36 0.44 0.52 0.52 0.40 0.38 0.36 0.39 0.36 0.36 0.34 0.29 0.24 0.23 0.21 0.17 0.29 0.42 0.50 0.38 0.32 0.29 0.33 0.43 0.56 0.66 0.70 0.70 0.73 0.83 0.83 0.79 0.76 0.79 0.87 1.04 1.09 1.21 1.32 1.16 1.09 1.13 1.15 1.14 1.15 1.18 1.27 1.24 1.19 1.11 1.10 1.09 1.03 0.99 0.93 0.92 0.92 0.92 0.94 0.97
0.49 0.48 0.47 0.48 0.50 0.51 0.51 0.50 0.49 0.52 0.56 0.55 0.50 0.39 0.24 0.28 0.22 0.20 0.33 0.33 0.37 0.38 0.32 0.31 0.29 0.30 0.33 0.38 0.40 0.39 0.36 0.40 0.44 0.41 0.42 0.49 0.42 0.34 0.32 0.28 0.22 0.17 0.20 0.26 0.32 0.43 0.45 0.35 0.33 0.34 0.35 0.41 0.51 0.64 0.65 0.59 0.74 0.77 0.78 0.77 0.76 0.83 0.80 1.01 1.02 1.18 1.29 1.12 1.12 1.20 1.14 1.13 1.17 1.23 1.29 1.32 1.19 1.02 1.05 1.04 1.00 0.95 0.94 0.93 0.92 0.91 0.92 0.95
0.49 0.48 0.47 0.49 0.51 0.51 0.51 0.50 0.51 0.55 0.58 0.54 0.47 0.34 0.39 0.45 0.50 0.51 0.44 0.28 0.33 0.37 0.38 0.33 0.34 0.33 0.38 0.37 0.40 0.42 0.42 0.35 0.36 0.41 0.48 0.45 0.41 0.30 0.32 0.29 0.22 0.16 0.22 0.28 0.32 0.34 0.32 0.28 0.33 0.39 0.40 0.41 0.47 0.58 0.61 0.56 0.58 0.69 0.65 0.68 0.69 0.79 0.95 1.06 1.08 1.17 1.19 1.14 1.02 1.20 1.10 1.13 1.20 1.24 1.31 1.31 1.25 1.16 1.14 1.08 1.00 0.95 0.93 0.93 0.94 0.93 0.93 0.94
0.50 0.49 0.48 0.50 0.51 0.51 0.50 0.51 0.53 0.56 0.54 0.48 0.38 0.42 0.45 0.59 0.67 0.64 0.56 0.41 0.32 0.40 0.37 0.34 0.30 0.31 0.29 0.35 0.38 0.39 0.28 0.26 0.26 0.35 0.43 0.41 0.40 0.34 0.36 0.27 0.24 0.21 0.23 0.27 0.25 0.26 0.24 0.26 0.34 0.43 0.43 0.40 0.39 0.42 0.50 0.52 0.55 0.53 0.58 0.57 0.56 0.76 0.76 0.70 0.98 1.11 1.13 1.04 1.03 1.17 1.11 1.13 1.22 1.28 1.28 1.35 1.34 1.28 1.22 1.14 1.06 1.04 0.98 0.96 0.96 0.94 0.90 0.91
0.51 0.49 0.49 0.50 0.51 0.49 0.51 0.53 0.55 0.55 0.51 0.47 0.42 0.46 0.59 0.66 0.71 0.66 0.51 0.36 0.31 0.35 0.38 0.39 0.38 0.33 0.31 0.27 0.37 0.32 0.25 0.27 0.30 0.29 0.45 0.40 0.33 0.37 0.35 0.30 0.27 0.22 0.20 0.25 0.28 0.26 0.25 0.30 0.36 0.41 0.42 0.41 0.38 0.39 0.42 0.43 0.46 0.57 0.58 0.56 0.59 0.68 0.79 0.83 0.88 1.04 1.10 1.09 1.13 1.11 1.07 1.08 1.15 1.12 1.18 1.31 1.42 1.34 1.25 1.17 1.08 1.06 1.08 1.09 1.07 1.04 0.99 0.92
0.52 0.49 0.49 0.50 0.49 0.50 0.52 0.54 0.46 0.47 0.52 0.48 0.43 0.57 0.65 0.66 0.73 0.68 0.50 0.41 0.37 0.35 0.47 0.39 0.41 0.38 0.40 0.48 0.44 0.29 0.29 0.28 0.29 0.31 0.40 0.39 0.35 0.32 0.31 0.34 0.28 0.22 0.21 0.26 0.28 0.27 0.27 0.34 0.35 0.34 0.37 0.37 0.37 0.36 0.40 0.43 0.43 0.52 0.64 0.62 0.64 0.76 0.78 0.86 0.96 0.93 0.83 0.82 1.00 0.96 0.76 0.83 1.07 1.11 1.12 1.21 1.29 1.26 1.27 1.14 1.02 0.99 1.02 1.07 1.04 1.03 1.04 1.03
0.53 0.50 0.49 0.50 0.49 0.49 0.53 0.43 0.47 0.50 0.46 0.40 0.47 0.62 0.67 0.68 0.75 0.70 0.51 0.32 0.24 0.31 0.41 0.29 0.37 0.29 0.40 0.36 0.40 0.37 0.32 0.25 0.29 0.31 0.37 0.39 0.45 0.34 0.32 0.29 0.29 0.22 0.21 0.23 0.25 0.27 0.29 0.35 0.32 0.30 0.32 0.34 0.34 0.34 0.39 0.41 0.41 0.44 0.49 0.69 0.74 0.78 0.84 0.84 0.86 0.86 0.69 0.61 0.88 1.07 0.74 0.71 1.03 1.03 1.11 1.18 1.20 1.20 1.26 1.17 1.10 1.01 0.99 1.02 1.03 1.03 1.03 1.03
0.52 0.49 0.50 0.50 0.49 0.50 0.35 0.33 0.49 0.49 0.38 0.42 0.58 0.68 0.67 0.70 0.78 0.66 0.43 0.26 0.20 0.30 0.28 0.30 0.32 0.27 0.35 0.32 0.33 0.36 0.24 0.25 0.37 0.37 0.36 0.40 0.36 0.42 0.30 0.28 0.28 0.27 0.27 0.25 0.21 0.22 0.28 0.31 0.29 0.28 0.27 0.27 0.27 0.28 0.35 0.38 0.39 0.38 0.59 0.67 0.74 0.71 0.73 0.79 0.81 0.80 0.76 0.95 1.04 1.05 0.97 0.78 0.80 0.97 1.13 1.18 1.17 1.18 1.18 1.18 1.15 1.08 1.01 1.00 1.03 1.04 1.04 1.07
0.51 0.48 0.49 0.50 0.49 0.48 0.38 0.42 0.43 0.39 0.42 0.53 0.68 0.68 0.68 0.73 0.75 0.66 0.43 0.18 0.16 0.32 0.25 0.27 0.28 0.34 0.30 0.29 0.30 0.30 0.32 0.40 0.30 0.36 0.43 0.45 0.39 0.38 0.32 0.30 0.26 0.25 0.26 0.22 0.15 0.24 0.24 0.25 0.27 0.26 0.25 0.24 0.23 0.26 0.35 0.39 0.37 0.46 0.60 0.67 0.62 0.65 0.69 0.76 0.75 0.73 0.78 0.78 0.73 0.88 1.03 0.80 0.77 0.96 1.15 1.16 1.07 1.12 1.13 1.15 1.16 1.13 1.08 1.05 1.03 1.05 1.07 1.09
0.49 0.47 0.49 0.50 0.49 0.47 0.47 0.41 0.42 0.41 0.56 0.66 0.67 0.67 0.70 0.76 0.67 0.48 0.31 0.17 0.28 0.30 0.37 0.25 0.37 0.35 0.32 0.33 0.30 0.30 0.34 0.38 0.31 0.40 0.45 0.43 0.43 0.42 0.28 0.32 0.30 0.29 0.31 0.26 0.19 0.23 0.25 0.23 0.25 0.25 0.23 0.21 0.24 0.27 0.35 0.39 0.36 0.71 0.76 0.80 0.78 0.79 0.80 0.80 0.75 0.74 0.76 0.68 0.61 0.80 0.96 0.74 0.74 0.93 1.02 1.12 1.07 1.04 1.10 1.17 1.19 1.18 1.11 1.08 1.06 1.06 1.09 1.11
0.47 0.47 0.49 0.49 0.45 0.41 0.39 0.46 0.42 0.54 0.66 0.70 0.67 0.68 0.73 0.67 0.53 0.33 0.21 0.16 0.33 0.23 0.31 0.31 0.31 0.31 0.35 0.32 0.32 0.35 0.34 0.33 0.40 0.45 0.45 0.37 0.38 0.41 0.41 0.43 0.33 0.30 0.29 0.33 0.29 0.28 0.30 0.33 0.32 0.28 0.25 0.25 0.24 0.27 0.36 0.45 0.58 0.90 0.78 0.69 0.72 0.76 0.76 0.79 0.79 0.78 0.72 0.56 0.63 0.84 0.96 0.87 0.68 0.86 0.95 0.97 0.94 1.03 1.13 1.19 1.24 1.25 1.20 1.14 1.13 1.11 1.08 1.10
0.45 0.48 0.49 0.49 0.33 0.38 0.37 0.33 0.50 0.64 0.67 0.68 0.69 0.69 0.66 0.55 0.35 0.24 0.17 0.22 0.37 0.30 0.35 0.30 0.29 0.34 0.33 0.32 0.32 0.37 0.38 0.37 0.38 0.44 0.38 0.39 0.38 0.38 0.40 0.35 0.39 0.33 0.31 0.31 0.28 0.29 0.28 0.28 0.27 0.29 0.29 0.27 0.27 0.27 0.33 0.57 0.79 0.69 0.63 0.61 0.63 0.65 0.75 0.71 0.71 0.78 0.58 0.51 0.71 0.86 0.89 0.95 0.66 0.78 0.99 1.09 1.15 1.16 1.14 1.11 1.16 1.20 1.20 1.15 1.13 1.14 1.12 1.12
0.45 0.48 0.49 0.43 0.44 0.48 0.30 0.36 0.53 0.64 0.66 0.67 0.65 0.61 0.54 0.30 0.35 0.21 0.19 0.40 0.22 0.27 0.29 0.28 0.31 0.31 0.32 0.33 0.33 0.34 0.35 0.41 0.44 0.46 0.42 0.34 0.37 0.34 0.34 0.29 0.33 0.24 0.22 0.23 0.22 0.25 0.21 0.22 0.26 0.26 0.30 0.27 0.27 0.28 0.35 0.56 0.77 0.65 0.59 0.54 0.40 0.47 0.54 0.44 0.54 0.48 0.52 0.51 0.74 0.88 0.92 0.82 0.79 0.86 1.01 1.13 1.16 1.17 1.19 1.19 1.19 1.21 1.24 1.23 1.18 1.16 1.16 1.15
0.45 0.47 0.46 0.45 0.47 0.43 0.46 0.52 0.63 0.64 0.65 0.61 0.57 0.56 0.37 0.24 0.17 0.25 0.26 0.30 0.25 0.33 0.30 0.35 0.31 0.31 0.31 0.31 0.31 0.33 0.37 0.36 0.43 0.46 0.45 0.45 0.38 0.39 0.41 0.37 0.39 0.31 0.23 0.26 0.22 0.20 0.21 0.24 0.24 0.24 0.25 0.29 0.27 0.22 0.37 0.60 0.72 0.64 0.50 0.46 0.39 0.37 0.38 0.36 0.46 0.54 0.58 0.65 0.81 0.82 0.96 0.76 0.87 0.93 1.07 1.08 1.19 1.23 1.23 1.25 1.27 1.27 1.27 1.27 1.26 1.21 1.18 1.18
0.45 0.46 0.39 0.46 0.48 0.51 0.53 0.58 0.62 0.65 0.57 0.58 0.54 0.43 0.32 0.21 0.20 0.38 0.30 0.32 0.29 0.36 0.34 0.31 0.30 0.30 0.30 0.29 0.31 0.33 0.31 0.37 0.39 0.43 0.43 0.40 0.37 0.32 0.33 0.35 0.37 0.32 0.29 0.28 0.21 0.21 0.17 0.17 0.20 0.23 0.20 0.28 0.27 0.26 0.42 0.57 0.63 0.61 0.61 0.49 0.41 0.36 0.35 0.33 0.42 0.39 0.45 0.54 0.71 0.91 0.76 0.65 0.67 0.80 1.16 1.18 1.23 1.27 1.29 1.29 1.33 1.34 1.34 1.34 1.35 1.32 1.23 1.19
0.45 0.45 0.48 0.52 0.53 0.55 0.56 0.61 0.64 0.64 0.55 0.53 0.44 0.34 0.22 0.22 0.27 0.26 0.28 0.31 0.34 0.34 0.31 0.34 0.28 0.28 0.27 0.30 0.35 0.37 0.35 0.32 0.39 0.42 0.41 0.37 0.32 0.31 0.29 0.30 0.34 0.34 0.33 0.24 0.26 0.24 0.24 0.23 0.28 0.26 0.26 0.28 0.26 0.34 0.47 0.58 0.60 0.69 0.67 0.64 0.45 0.40 0.56 0.44 0.53 0.52 0.54 0.56 0.59 0.71 0.67 0.80 0.77 1.10 1.19 1.30 1.31 1.27 1.30 1.30 1.32 1.33 1.37 1.39 1.37 1.34 1.26 1.20
0.42 0.45 0.51 0.45 0.45 0.49 0.56 0.61 0.65 0.64 0.53 0.46 0.37 0.27 0.23 0.27 0.25 0.32 0.29 0.37 0.35 0.31 0.30 0.29 0.27 0.25 0.26 0.29 0.35 0.37 0.43 0.37 0.43 0.44 0.41 0.36 0.35 0.31 0.33 0.32 0.31 0.33 0.31 0.26 0.33 0.25 0.28 0.25 0.32 0.36 0.35 0.28 0.29 0.41 0.53 0.66 0.41 0.59 0.57 0.43 0.48 0.70 0.64 0.58 0.61 0.68 0.68 0.60 0.53 0.76 0.71 0.78 0.98 1.01 1.09 1.19 1.24 1.23 1.27 1.27 1.28 1.29 1.35 1.37 1.35 1.35 1.30 1.26
0.36 0.46 0.38 0.47 0.47 0.56 0.59 0.63 0.67 0.61 0.54 0.44 0.34 0.26 0.32 0.34 0.37 0.36 0.38 0.34 0.34 0.34 0.29 0.22 0.23 0.24 0.25 0.29 0.31 0.37 0.41 0.42 0.44 0.42 0.34 0.41 0.33 0.37 0.35 0.38 0.39 0.37 0.37 0.33 0.30 0.34 0.26 0.28 0.35 0.35 0.31 0.33 0.36 0.45 0.55 0.54 0.59 0.61 0.47 0.56 0.72 0.80 0.73 0.58 0.45 0.54 0.51 0.43 0.48 0.64 0.55 0.60 0.69 0.63 1.02 1.06 1.10 1.17 1.20 1.22 1.25 1.28 1.32 1.31 1.33 1.37 1.35 1.32
0.38 0.41 0.45 0.44 0.54 0.59 0.62 0.66 0.62 0.57 0.50 0.40 0.31 0.33 0.41 0.32 0.41 0.39 0.39 0.37 0.34 0.33 0.27 0.23 0.25 0.28 0.29 0.30 0.33 0.38 0.41 0.37 0.41 0.41 0.34 0.38 0.34 0.44 0.39 0.39 0.41 0.38 0.39 0.40 0.34 0.34 0.35 0.28 0.34 0.39 0.36 0.40 0.46 0.52 0.51 0.53 0.62 0.59 0.58 0.83 0.54 0.45 0.41 0.59 0.61 0.42 0.39 0.39 0.42 0.50 0.58 0.60 0.67 0.70 0.92 0.93 0.99 1.07 1.15 1.22 1.23 1.23 1.27 1.30 1.36 1.39 1.41 1.39
0.43 0.41 0.32 0.47 0.62 0.63 0.60 0.65 0.59 0.52 0.43 0.33 0.32 0.29 0.37 0.38 0.42 0.39 0.39 0.37 0.35 0.29 0.24 0.25 0.25 0.29 0.33 0.32 0.37 0.41 0.41 0.36 0.39 0.38 0.32 0.37 0.35 0.41 0.42 0.42 0.38 0.41 0.41 0.41 0.36 0.37 0.37 0.30 0.32 0.40 0.38 0.45 0.51 0.48 0.40 0.54 0.66 0.65 0.64 0.59 0.66 0.63 0.51 0.53 0.56 0.59 0.48 0.40 0.40 0.41 0.53 0.47 0.68 0.75 0.83 0.87 0.98 1.05 1.11 1.16 1.19 1.23 1.27 1.31 1.35 1.39 1.41 1.40
0.37 0.33 0.36 0.56 0.67 0.66 0.65 0.64 0.54 0.49 0.40 0.31 0.33 0.34 0.40 0.35 0.38 0.39 0.39 0.36 0.27 0.25 0.25 0.25 0.28 0.30 0.33 0.34 0.39 0.37 0.41 0.39 0.40 0.39 0.36 0.40 0.38 0.43 0.43 0.45 0.41 0.38 0.42 0.42 0.39 0.42 0.34 0.39 0.30 0.35 0.41 0.46 0.43 0.44 0.44 0.52 0.51 0.51 0.47 0.47 0.55 0.54 0.61 0.62 0.63 0.51 0.44 0.41 0.39 0.38 0.37 0.45 0.62 0.83 0.87 0.91 0.98 1.05 1.12 1.13 1.19 1.25 1.31 1.36 1.39 1.41 1.42 1.43
0.50 0.37 0.39 0.63 0.68 0.69 0.65 0.56 0.45 0.39 0.37 0.40 0.42 0.38 0.39 0.35 0.38 0.36 0.36 0.36 0.29 0.30 0.26 0.25 0.27 0.28 0.31 0.33 0.35 0.40 0.38 0.38 0.38 0.37 0.37 0.39 0.39 0.34 0.44 0.41 0.43 0.37 0.41 0.42 0.40 0.42 0.36 0.38 0.34 0.35 0.35 0.36 0.46 0.47 0.52 0.55 0.56 0.51 0.48 0.45 0.47 0.42 0.43 0.40 0.44 0.57 0.51 0.42 0.38 0.37 0.35 0.46 0.63 0.93 0.94 0.96 1.04 1.09 1.16 1.19 1.21 1.26 1.32 1.37 1.40 1.43 1.45 1.46
0.38 0.32 0.40 0.64 0.71 0.68 0.54 0.37 0.40 0.48 0.41 0.36 0.36 0.40 0.37 0.45 0.38 0.34 0.34 0.33 0.28 0.26 0.29 0.27 0.29 0.30 0.31 0.32 0.33 0.35 0.37 0.34 0.37 0.38 0.38 0.38 0.41 0.41 0.42 0.45 0.42 0.41 0.38 0.38 0.40 0.45 0.44 0.42 0.39 0.37 0.36 0.37 0.44 0.48 0.54 0.56 0.56 0.54 0.53 0.52 0.50 0.44 0.43 0.41 0.34 0.42 0.47 0.47 0.52 0.48 0.40 0.41 0.80 0.96 1.01 1.03 1.07 1.12 1.18 1.21 1.23 1.29 1.32 1.37 1.43 1.46 1.49 1.51
0.39 0.37 0.51 0.68 0.73 0.64 0.47 0.34 0.42 0.42 0.39 0.42 0.47 0.45 0.45 0.40 0.37 0.35 0.32 0.30 0.26 0.27 0.27 0.26 0.28 0.29 0.31 0.32 0.33 0.35 0.36 0.35 0.37 0.38 0.42 0.41 0.41 0.43 0.44 0.42 0.45 0.41 0.43 0.41 0.44 0.46 0.55 0.40 0.36 0.40 0.42 0.45 0.47 0.51 0.50 0.50 0.52 0.49 0.51 0.57 0.54 0.44 0.42 0.41 0.41 0.45 0.39 0.45 0.41 0.45 0.39 0.45 0.77 1.02 1.04 1.04 1.09 1.15 1.21 1.22 1.22 1.29 1.35 1.39 1.42 1.45 1.47 1.49
0.42 0.44 0.49 0.67 0.76 0.66 0.42 0.29 0.32 0.37 0.40 0.44 0.44 0.41 0.44 0.39 0.37 0.33 0.30 0.28 0.27 0.26 0.25 0.26 0.29 0.30 0.28 0.34 0.34 0.33 0.37 0.32 0.40 0.40 0.39 0.45 0.40 0.46 0.42 0.43 0.47 0.42 0.41 0.44 0.39 0.45 0.38 0.42 0.38 0.36 0.34 0.37 0.40 0.44 0.47 0.50 0.52 0.51 0.53 0.58 0.60 0.55 0.46 0.43 0.46 0.51 0.40 0.44 0.46 0.42 0.34 0.41 0.70 0.92 1.00 1.03 1.06 1.09 1.14 1.23 1.27 1.26 1.36 1.40 1.43 1.46 1.50 1.52
0.46 0.52 0.57 0.58 0.67 0.63 0.39 0.42 0.39 0.38 0.39 0.40 0.40 0.37 0.37 0.37 0.39 0.38 0.34 0.29 0.30 0.28 0.26 0.27 0.28 0.30 0.31 0.35 0.35 0.37 0.39 0.36 0.35 0.41 0.40 0.43 0.44 0.48 0.45 0.44 0.47 0.45 0.46 0.60 0.52 0.53 0.44 0.43 0.40 0.33 0.29 0.26 0.28 0.30 0.34 0.38 0.44 0.52 0.59 0.60 0.60 0.53 0.40 0.38 0.33 0.41 0.34 0.42 0.44 0.39 0.36 0.44 0.64 0.83 0.89 0.96 1.02 1.05 1.15 1.22 1.30 1.34 1.36 1.39 1.43 1.46 1.49 1.51
0.40 0.33 0.46 0.53 0.58 0.58 0.51 0.50 0.47 0.43 0.41 0.41 0.38 0.39 0.40 0.36 0.38 0.39 0.35 0.31 0.32 0.32 0.32 0.30 0.31 0.32 0.31 0.32 0.31 0.32 0.34 0.40 0.36 0.37 0.40 0.40 0.45 0.48 0.51 0.47 0.48 0.46 0.47 0.54 0.48 0.52 0.45 0.48 0.45 0.42 0.40 0.37 0.44 0.50 0.59 0.55 0.57 0.48 0.56 0.57 0.54 0.54 0.45 0.38 0.37 0.35 0.29 0.34 0.33 0.37 0.38 0.41 0.51 0.68 0.78 0.89 0.97 1.01 1.07 1.17 1.22 1.28 1.35 1.42 1.46 1.48 1.49 1.51
0.52 0.39 0.41 0.39 0.54 0.52 0.48 0.50 0.49 0.52 0.44 0.48 0.37 0.41 0.38 0.38 0.38 0.37 0.36 0.30 0.33 0.34 0.33 0.32 0.30 0.27 0.28 0.28 0.29 0.31 0.35 0.35 0.39 0.38 0.38 0.38 0.42 0.46 0.53 0.49 0.47 0.47 0.48 0.45 0.52 0.48 0.45 0.43 0.48 0.48 0.48 0.52 0.58 0.61 0.68 0.69 0.54 0.56 0.54 0.53 0.57 0.52 0.46 0.35 0.33 0.31 0.39 0.30 0.24 0.36 0.43 0.41 0.49 0.63 0.77 0.85 0.94 1.03 1.10 1.15 1.22 1.28 1.34 1.38 1.43 1.50 1.55 1.56
0.34 0.50 0.57 0.69 0.45 0.41 0.39 0.42 0.53 0.52 0.53 0.51 0.45 0.46 0.40 0.37 0.37 0.33 0.36 0.35 0.36 0.36 0.31 0.33 0.32 0.31 0.30 0.27 0.28 0.26 0.30 0.32 0.34 0.33 0.38 0.39 0.40 0.44 0.46 0.48 0.46 0.46 0.46 0.45 0.49 0.44 0.41 0.38 0.47 0.48 0.47 0.54 0.61 0.65 0.71 0.70 0.64 0.63 0.60 0.59 0.55 0.58 0.50 0.39 0.39 0.45 0.40 0.29 0.25 0.33 0.37 0.38 0.54 0.68 0.82 0.89 0.96 1.03 1.10 1.17 1.26 1.33 1.39 1.43 1.46 1.49 1.53 1.58
0.53 0.61 0.63 0.77 0.50 0.55 0.50 0.55 0.55 0.52 0.50 0.50 0.48 0.46 0.40 0.38 0.35 0.37 0.35 0.33 0.34 0.34 0.35 0.29 0.31 0.33 0.32 0.32 0.29 0.26 0.29 0.27 0.29 0.34 0.34 0.36 0.37 0.39 0.40 0.44 0.45 0.48 0.44 0.44 0.48 0.48 0.44 0.40 0.46 0.47 0.46 0.52 0.58 0.64 0.66 0.65 0.63 0.61 0.61 0.62 0.66 0.63 0.59 0.55 0.49 0.51 0.45 0.41 0.45 0.42 0.42 0.47 0.67 0.77 0.86 0.96 1.07 1.11 1.18 1.30 1.33 1.30 1.32 1.39 1.47 1.50 1.53 1.57
0.45 0.45 0.53 0.67 0.66 0.61 0.60 0.59 0.55 0.53 0.46 0.51 0.42 0.44 0.44 0.40 0.37 0.38 0.36 0.33 0.30 0.31 0.36 0.32 0.33 0.35 0.33 0.32 0.31 0.27 0.30 0.31 0.32 0.31 0.37 0.36 0.37 0.39 0.40 0.43 0.44 0.48 0.45 0.40 0.42 0.46 0.41 0.40 0.47 0.46 0.44 0.48 0.55 0.58 0.59 0.58 0.60 0.59 0.62 0.65 0.65 0.68 0.66 0.64 0.58 0.56 0.54 0.50 0.52 0.48 0.45 0.46 0.76 0.91 0.93 1.06 1.13 1.17 1.19 1.22 1.27 1.33 1.36 1.38 1.43 1.49 1.52 1.56
0.65 0.67 0.73 0.57 0.48 0.55 0.60 0.57 0.53 0.50 0.47 0.50 0.45 0.47 0.45 0.44 0.41 0.42 0.36 0.37 0.32 0.30 0.33 0.32 0.35 0.35 0.36 0.35 0.33 0.32 0.35 0.35 0.35 0.36 0.37 0.38 0.34 0.40 0.38 0.41 0.46 0.45 0.44 0.40 0.39 0.41 0.43 0.42 0.49 0.47 0.40 0.42 0.48 0.51 0.56 0.55 0.55 0.50 0.52 0.56 0.61 0.62 0.57 0.63 0.57 0.68 0.54 0.47 0.51 0.48 0.42 0.47 0.75 0.91 0.97 1.03 1.05 1.06 1.07 1.14 1.22 1.31 1.40 1.41 1.38 1.43 1.51 1.54
0.68 0.78 0.77 0.67 0.48 0.66 0.54 0.60 0.57 0.49 0.43 0.51 0.51 0.50 0.46 0.45 0.47 0.46 0.35 0.37 0.37 0.36 0.35 0.35 0.35 0.34 0.33 0.32 0.31 0.33 0.37 0.38 0.39 0.41 0.41 0.42 0.43 0.44 0.45 0.45 0.45 0.44 0.46 0.41 0.41 0.38 0.42 0.42 0.40 0.42 0.38 0.39 0.48 0.51 0.49 0.48 0.45 0.39 0.47 0.56 0.65 0.69 0.73 0.75 0.78 0.80 0.72 0.68 0.51 0.41 0.47 0.71 0.81 0.90 0.84 0.90 0.97 1.01 1.04 1.11 1.16 1.27 1.37 1.43 1.44 1.46 1.49 1.54
Wind_Speed
10 10 10 10 10 10 10 10 10 10 10 11 11 11 11 11 11 11 11 11 11 11 11 11 11 11 10 11 11 11 11 11 11 11 11 12 12 13 12 11 12 12 10 9 9 8 8 8 9 9 8 9 8 8 8 7 6 5 5 4 4 4 4 4 5 5 4 5 7 7 8 7 7 6 6 6 6 6 6 6 8 7 8 9 10 12 12 11
11 11 11 11 10 10 10 11 11 11 11 11 12 12 12 12 12 12 12 12 11 11 11 11 11 11 11 10 11 11 11 11 11 11 12 12 12 13 13 12 12 13 11 9 9 9 8 8 9 8 8 8 8 8 8 7 7 6 5 5 6 6 6 6 6 6 5 6 7 8 9 8 8 8 8 8 6 7 7 7 9 9 9 10 11 12 11 11
12 12 12 12 11 11 11 11 11 11 12 12 13 13 12 12 12 12 12 12 12 12 12 12 11 11 11 11 11 10 10 10 10 11 11 11 12 12 13 13 13 14 12 10 10 9 9 9 9 8 8 8 8 8 8 7 7 7 6 6 7 7 7 8 8 9 8 8 9 9 10 9 9 10 10 9 7 7 7 8 9 10 11 11 12 12 11 11
13 13 13 13 12 12 12 12 12 12 12 13 13 13 13 13 12 12 12 12 12 12 12 12 12 11 11 11 11 10 10 9 9 10 9 9 10 12 13 14 14 14 12 11 10 9 9 9 9 8 8 8 8 8 8 8 7 7 6 7 8 7 8 9 10 11 11 11 11 10 11 10 10 11 10 11 8 6 8 10 10 11 12 13 12 12 11 10
14 14 14 14 13 13 13 13 13 13 13 13 14 14 14 14 13 12 12 12 12 12 12 12 12 12 12 11 11 10 9 8 9 9 9 8 9 10 12 13 14 14 13 11 11 10 9 8 8 7 7 7 7 7 8 9 8 7 7 6 7 7 9 10 11 13 12 11 12 12 13 12 12 11 12 13 9 7 9 10 11 11 13 14 13 12 11 10
14 15 15 15 14 14 14 14 13 13 14 14 14 14 14 14 13 13 12 11 11 11 11 12 12 12 12 11 10 9 9 9 9 9 9 9 9 10 12 13 14 13 13 12 11 11 10 9 8 8 8 7 7 7 8 9 9 8 7 6 7 8 10 11 13 15 14 13 15 15 14 14 13 11 13 13 8 8 10 10 11 11 13 14 13 12 11 10
15 15 15 15 15 15 14 14 14 14 14 14 14 14 14 14 13 13 12 11 11 11 11 11 11 12 12 11 10 9 9 10 10 10 10 10 9 10 12 13 14 14 13 13 12 12 11 10 10 10 8 7 8 8 9 8 9 8 6 6 7 8 10 12 12 14 14 15 16 16 16 16 15 13 12 12 8 8 10 11 11 12 13 14 13 12 11 10
16 16 16 16 16 15 15 15 15 15 15 15 14 14 14 13 13 13 12 12 11 11 11 11 11 11 11 11 10 10 10 11 10 10 10 10 10 10 12 13 14 14 14 14 13 13 12 11 11 11 9 9 8 8 8 7 7 7 6 6 7 8 9 9 8 8 8 11 12 15 18 17 15 13 12 11 10 10 11 11 12 13 13 13 13 12 11 10
16 17 17 17 17 16 16 16 16 16 15 15 15 14 14 14 13 13 12 12 11 11 11 11 11 11 11 11 10 10 10 10 10 9 9 10 10 11 12 13 14 14 14 14 14 13 13 13 13 12 10 9 9 8 8 7 7 7 5 5 5 6 6 6 5 3 2 7 10 15 18 17 15 13 11 11 12 12 12 12 13 13 13 13 13 12 11 10
17 18 18 18 17 17 17 17 16 16 16 15 15 15 14 14 13 13 12 12 11 11 11 11 11 11 11 11 10 10 11 10 10 9 9 9 10 11 12 13 14 15 15 14 15 14 14 14 14 13 11 10 9 8 8 8 7 5 5 4 4 3 3 4 4 5 7 8 10 16 17 16 14 13 11 12 14 14 13 13 13 14 14 13 13 12 11 10
18 18 18 18 18 18 17 17 17 16 16 15 15 15 14 14 13 13 12 12 12 11 11 11 11 11 11 11 10 11 11 10 10 10 9 10 10 12 13 13 14 15 15 15 15 16 15 15 14 12 11 10 9 8 7 7 7 6 5 4 3 1 1 3 4 6 8 9 10 14 15 13 12 11 11 13 15 15 14 14 13 13 13 13 13 12 11 10
19 19 19 19 19 18 18 17 17 16 16 15 15 15 14 14 14 13 12 12 12 11 11 11 11 11 12 12 12 12 12 11 11 11 11 11 11 12 12 14 15 15 15 15 16 17 16 15 14 12 11 10 9 8 7 7 7 7 5 4 4 2 1 1 4 6 8 8 8 12 13 12 12 11 11 14 15 15 15 15 14 13 13 13 12 12 11 10
19 20 20 20 19 19 18 17 17 16 16 15 15 15 14 14 14 13 12 12 12 11 11 11 11 11 11 12 12 11 11 12 12 11 12 12 12 12 12 14 15 15 16 15 15 17 18 17 14 13 12 11 10 9 9 8 7 7 6 5 5 3 1 1 4 6 7 7 7 10 13 12 11 11 12 15 15 15 15 14 14 13 13 13 12 12 11 10
20 20 20 20 20 19 18 17 17 16 15 15 15 14 14 14 14 13 12 11 11 11 11 11 11 11 11 11 11 11 11 12 12 12 12 13 13 13 13 13 15 16 16 16 15 15 17 18 15 14 13 12 11 10 9 8 7 7 6 6 6 5 4 3 4 7 7 7 8 10 11 12 11 11 13 14 15 15 14 14 14 13 13 13 12 12 11 11
20 21 21 20 20 19 18 17 17 16 15 15 14 14 14 14 13 12 11 10 10 11 11 11 10 10 10 10 10 10 11 11 12 13 13 13 13 13 13 14 15 16 16 17 17 15 16 16 15 15 14 13 12 11 10 9 8 8 7 7 7 7 6 5 4 6 7 7 8 9 10 11 10 12 14 14 14 15 14 14 14 13 14 14 13 12 12 11
21 21 21 20 20 19 18 17 16 15 15 14 14 14 14 13 12 11 11 10 10 10 10 10 10 9 9 9 9 9 10 11 12 13 13 14 14 14 14 14 14 15 16 16 17 17 16 16 15 15 14 14 13 11 11 9 9 8 8 9 8 8 8 7 6 7 8 8 7 7 9 10 10 11 13 14 15 15 14 14 14 14 14 14 13 12 12 12
21 21 20 20 19 18 18 17 16 15 14 14 14 14 13 12 11 10 10 9 10 10 10 10 10 9 9 8 8 9 10 11 12 12 13 14 14 14 13 13 14 15 16 16 16 17 17 16 16 16 14 14 13 12 12 11 11 10 9 9 9 9 9 9 8 8 8 8 8 7 8 10 10 9 11 13 15 15 14 14 14 14 14 14 13 13 13 12
21 21 20 19 19 18 17 17 16 15 14 14 14 13 12 11 10 10 9 10 11 10 9 9 9 8 8 8 8 9 10 11 11 11 12 13 14 14 13 14 14 15 16 16 16 17 17 16 15 15 15 14 14 14 13 13 13 12 10 9 9 9 9 9 9 9 9 9 9 9 8 9 10 9 10 11 13 15 15 14 14 14 15 14 13 13 13 13
21 20 19 19 19 18 17 16 15 14 14 14 13 12 10 10 10 9 9 11 10 8 8 9 9 8 9 10 9 10 11 10 10 11 11 12 13 14 14 14 14 15 16 16 17 18 17 16 15 16 17 17 16 16 15 14 13 12 10 9 9 9 9 9 9 9 10 9 10 11 9 10 10 11 12 11 12 14 14 14 13 14 15 14 13 13 13 13
20 20 19 19 18 17 16 15 14 13 13 12 11 10 9 11 10 9 11 11 9 9 9 10 10 10 11 11 10 11 11 9 9 10 11 12 13 13 13 14 14 14 15 17 17 18 18 17 17 18 18 18 18 18 16 14 13 12 11 10 9 9 9 9 9 10 10 9 10 11 10 10 12 12 12 12 12 13 13 13 14 14 15 15 14 13 14 14
20 20 19 19 18 17 16 15 13 12 11 11 11 9 9 10 9 10 11 10 9 9 10 10 10 11 12 11 11 11 11 10 10 10 11 12 13 13 14 14 14 14 16 17 17 17 17 18 19 19 19 19 19 19 17 14 13 12 12 11 9 9 9 9 9 10 10 10 11 12 10 10 11 12 12 12 12 14 14 14 14 15 15 15 14 14 14 14
20 20 19 18 17 16 15 14 12 11 10 10 10 9 9 10 9 9 9 9 10 9 8 9 9 11 12 12 12 11 10 11 11 11 11 12 13 13 14 13 14 16 17 17 17 16 17 19 20 19 18 18 18 19 18 16 15 13 12 12 11 10 9 9 9 9 9 10 11 12 10 10 11 12 13 13 13 14 15 14 14 16 16 15 15 14 14 14
20 20 19 18 17 15 14 13 12 10 10 10 10 9 10 10 10 9 7 7 10 9 7 8 8 10 11 11 11 10 9 10 11 11 11 11 12 13 13 13 15 16 17 17 17 17 17 18 19 19 18 18 18 18 19 18 17 15 14 13 12 12 11 10 10 10 9 9 10 10 10 10 10 12 14 15 14 13 14 14 14 16 16 16 16 15 15 15
20 20 19 17 16 15 14 13 10 9 10 11 9 8 10 11 9 8 7 7 8 8 8 8 8 9 10 10 9 8 9 10 10 10 11 11 11 12 13 13 14 15 17 17 18 18 18 18 18 19 19 20 20 19 20 19 18 17 16 14 13 13 13 11 10 10 9 9 9 9 10 11 12 13 15 16 16 14 14 15 15 16 16 16 16 15 15 15
20 20 18 17 15 15 14 11 9 10 11 10 8 9 11 11 9 7 7 7 7 9 9 9 9 9 8 8 8 8 8 9 10 10 10 11 11 11 12 12 13 15 17 17 17 17 19 18 18 18 19 20 21 21 21 21 19 17 17 16 15 15 14 11 11 11 10 10 11 11 9 11 14 16 16 16 16 16 15 15 16 17 17 16 16 16 15 15
20 20 18 16 15 14 12 9 9 10 10 9 8 9 11 11 9 7 7 7 7 9 9 9 9 9 8 8 7 6 6 8 9 9 9 10 11 10 10 11 12 14 16 16 17 17 18 18 17 18 20 21 21 22 22 21 19 18 18 17 15 14 14 13 13 13 12 12 12 12 10 9 12 17 17 16 17 18 17 16 17 18 18 18 17 17 16 16
20 19 18 15 14 13 10 9 10 9 8 8 8 10 11 11 8 7 7 7 8 9 9 9 9 9 8 7 6 4 5 6 6 6 8 9 10 9 10 11 11 13 14 15 16 17 18 18 17 18 19 20 22 22 23 22 20 19 18 17 15 14 14 15 15 14 14 12 11 13 12 9 11 16 19 19 18 19 19 18 17 18 19 19 19 18 18 17
20 19 17 15 13 11 9 9 9 8 7 8 9 10 11 10 7 7 6 6 8 9 8 9 9 8 7 6 5 4 4 5 4 5 7 8 9 9 9 11 12 13 13 14 16 16 16 18 19 19 19 20 21 22 23 22 20 19 17 15 14 13 13 15 15 14 14 12 12 14 13 10 10 13 17 20 21 21 21 20 18 18 19 20 20 19 19 19
19 18 16 14 13 11 9 8 7 7 7 8 9 10 10 8 7 7 6 6 8 8 8 9 8 8 7 5 4 4 4 4 4 5 6 7 8 8 9 11 11 12 12 13 16 17 17 18 20 19 19 20 20 21 22 21 21 19 16 13 12 11 12 13 14 14 13 12 13 15 14 11 10 12 16 20 22 22 21 20 18 18 20 20 20 20 20 20
19 18 15 13 12 10 8 8 7 6 7 8 10 10 9 7 7 7 7 7 8 8 8 8 7 6 4 3 3 3 3 4 4 4 4 6 8 7 8 10 9 10 11 12 14 17 17 18 18 18 19 19 18 19 20 21 22 20 16 14 13 12 12 13 13 12 12 12 13 14 15 13 10 11 16 20 22 21 20 20 19 19 20 21 21 21 21 21
18 17 14 12 10 9 8 7 6 5 7 9 9 9 7 7 7 6 6 7 8 9 9 7 7 5 3 2 3 3 2 4 4 3 4 5 6 7 8 9 8 9 11 11 13 15 16 17 18 18 19 18 17 17 20 23 23 20 18 17 15 13 13 12 12 11 11 13 13 13 14 13 12 11 13 18 21 21 21 21 20 19 20 21 21 21 21 21
18 16 13 11 9 8 7 6 5 6 7 8 9 8 6 6 7 7 7 8 8 8 8 6 6 4 2 2 2 3 3 3 4 3 4 5 6 7 8 9 9 9 10 11 12 13 15 17 17 17 18 18 17 17 19 22 22 20 20 19 15 13 12 11 12 11 11 13 12 11 11 12 13 11 11 15 18 21 22 22 22 21 21 21 22 22 22 21
17 15 12 10 8 7 7 6 6 7 7 8 8 7 5 6 7 7 7 8 7 7 6 5 5 3 2 2 3 4 3 4 4 3 4 4 5 7 9 9 9 8 9 10 11 11 13 15 16 15 16 18 18 18 21 23 22 21 21 19 17 14 12 12 12 11 11 12 12 11 10 11 11 9 10 13 17 20 23 23 23 23 23 22 22 22 22 22
16 14 10 8 7 7 7 6 6 6 7 7 6 5 5 6 6 7 8 8 7 6 5 4 4 3 2 3 4 4 4 5 4 3 3 4 4 6 8 8 8 8 7 8 9 10 11 12 15 16 16 18 19 20 24 23 21 21 20 18 18 16 14 13 13 12 10 10 10 11 10 10 9 7 8 10 14 18 22 23 23 23 24 23 22 22 23 23
15 11 9 8 7 7 6 6 6 6 6 6 5 5 5 5 6 7 7 7 6 6 5 4 3 3 4 4 4 4 3 5 3 2 3 4 5 6 7 7 8 8 7 8 8 9 11 11 14 15 15 17 19 19 22 21 19 20 19 18 18 18 15 13 13 12 11 9 10 11 11 10 10 9 7 7 10 15 19 21 22 22 23 23 22 22 23 24
12 9 8 7 7 6 6 5 5 5 5 5 5 5 5 5 6 6 6 6 6 6 5 5 4 3 4 5 5 4 3 3 3 3 3 4 5 6 6 7 8 9 8 9 9 9 9 10 10 11 13 17 19 19 21 20 19 19 18 18 17 17 16 13 11 11 10 10 10 11 11 10 9 9 8 6 8 12 16 19 21 22 23 24 23 23 24 24
11 9 8 8 7 6 5 4 4 4 5 4 4 4 5 5 5 5 5 6 6 5 4 4 4 3 3 4 4 5 4 3 3 3 3 3 4 6 6 6 8 9 9 9 9 9 10 10 9 9 11 14 17 18 18 18 18 17 17 19 17 15 15 14 12 11 11 10 10 11 11 10 8 8 7 6 9 11 14 17 19 21 23 24 23 23 24 25
10 9 8 8 7 6 5 4 4 4 5 4 4 5 5 5 5 4 5 6 5 4 3 3 4 3 2 3 4 4 3 2 2 2 2 3 5 6 6 5 6 8 9 9 8 8 9 9 8 8 10 12 15 18 17 17 17 15 16 17 16 15 15 15 13 12 12 10 10 10 10 10 11 9 7 7 10 11 13 15 17 19 22 23 24 24 23 24
10 9 8 8 7 6 5 5 5 5 5 4 4 5 5 5 6 5 5 5 3 3 3 3 3 2 1 2 2 2 1 0 2 2 1 3 5 6 6 5 5 7 9 10 9 8 9 9 9 9 9 11 15 18 18 17 16 15 14 15 16 15 15 16 14 12 11 10 9 9 8 9 10 10 8 8 10 11 12 13 15 17 20 22 23 24 23 23
9 8 8 9 7 6 6 6 6 5 5 5 4 5 5 5 6 6 6 4 2 2 3 3 2 2 1 1 1 1 1 2 1 2 2 4 5 5 5 5 4 6 8 10 9 9 9 9 9 9 9 11 15 17 18 17 17 16 15 15 16 15 14 15 14 12 11 10 10 9 8 9 9 8 8 8 8 10 11 12 13 15 18 20 22 23 23 23
9 8 9 9 7 7 7 7 7 5 5 5 5 5 5 5 5 7 6 3 2 2 2 2 2 2 1 1 1 1 1 3 2 2 3 4 4 5 5 5 4 5 6 7 8 9 10 9 8 9 10 13 15 15 16 17 17 17 16 15 16 15 14 13 13 13 12 11 10 10 9 10 9 8 7 7 6 8 10 11 12 14 16 18 19 22 23 23
9 9 9 9 7 8 7 7 7 5 5 6 6 6 6 5 5 5 5 3 2 2 2 2 2 2 1 1 2 2 1 2 1 2 4 5 5 6 5 4 4 5 5 6 8 10 11 9 8 9 10 12 14 14 14 16 17 18 17 16 15 15 14 14 12 13 12 12 11 9 9 9 9 7 7 7 6 6 9 10 11 12 14 16 17 19 21 22
10 10 10 9 8 8 7 8 8 7 7 8 7 7 6 5 4 4 3 3 3 2 2 2 2 2 3 3 2 2 2 1 1 2 3 5 6 6 5 4 4 5 4 5 8 10 11 9 8 8 8 9 11 11 12 13 15 16 16 16 16 15 15 15 14 12 13 13 11 9 9 9 8 7 7 7 6 6 7 9 10 11 12 14 16 17 19 21
11 11 11 9 9 9 8 8 8 8 8 8 7 7 6 5 4 4 4 3 3 2 2 3 3 2 3 3 2 2 2 1 1 2 2 4 6 6 4 3 4 4 3 5 8 9 11 10 8 7 7 8 8 9 10 11 12 14 15 16 16 14 14 15 14 12 12 14 12 10 10 10 8 6 6 6 6 6 6 7 8 10 11 13 14 16 18 20
12 12 11 11 10 10 9 8 8 8 8 7 7 7 6 5 5 5 5 4 3 3 3 4 3 3 3 2 2 2 2 1 2 2 2 3 6 7 4 3 4 4 4 6 8 9 10 11 9 8 9 10 9 9 10 10 11 13 14 15 15 13 13 14 14 13 13 13 13 11 11 10 9 6 5 6 6 6 6 6 7 8 10 12 13 15 17 19
12 12 12 11 10 10 10 9 8 7 8 6 6 6 6 5 6 6 6 4 3 3 3 4 4 3 3 2 2 2 3 2 2 2 2 3 5 7 7 5 4 3 4 5 7 8 9 10 10 10 10 11 11 10 10 9 10 11 13 14 13 13 13 14 13 14 14 13 13 12 11 10 9 8 7 6 6 6 6 6 7 8 9 11 12 14 16 18
12 12 12 11 10 10 9 9 7 7 7 6 6 6 6 5 5 5 5 4 4 3 4 4 4 4 4 3 2 3 3 3 2 2 3 4 5 7 8 7 5 3 4 5 7 9 9 9 10 10 9 10 11 10 8 8 8 9 11 12 12 11 12 13 13 14 14 13 12 12 10 9 9 9 8 8 7 6 6 6 7 8 9 10 11 12 14 16
13 12 11 10 10 9 9 9 8 7 7 7 6 6 6 6 5 5 5 5 3 3 3 4 5 4 4 4 3 3 4 4 3 4 4 4 4 5 5 7 7 4 4 5 7 9 10 11 11 11 9 8 9 8 7 7 8 8 8 10 11 11 11 12 14 13 13 13 13 12 10 9 9 9 9 8 8 7 6 6 7 8 9 9 10 11 12 14
12 11 11 10 10 9 9 9 8 7 7 7 7 6 6 6 6 6 5 4 4 4 3 3 5 5 4 3 3 3 4 3 4 5 4 4 5 4 5 6 7 5 4 5 7 8 10 11 12 13 11 9 9 9 8 8 7 7 7 8 11 11 11 12 13 13 12 13 14 12 9 8 9 10 9 8 8 7 6 6 6 7 8 9 9 10 12 13
10 11 10 10 9 10 9 9 8 7 7 7 7 7 7 7 6 6 5 4 5 5 4 3 5 4 3 3 2 3 5 5 5 5 5 4 4 4 5 7 8 7 5 5 7 7 9 11 12 12 12 12 11 10 9 8 7 7 6 8 10 11 11 11 11 12 12 13 13 12 9 9 10 9 8 8 8 7 6 5 5 6 7 9 10 10 11 12
10 11 10 9 9 9 9 9 8 8 8 8 8 8 8 8 7 6 6 6 6 6 5 5 4 4 4 3 2 4 6 6 6 6 6 5 4 4 5 5 6 8 7 6 6 7 8 10 11 11 13 15 13 10 9 9 8 7 6 7 9 11 11 11 10 11 12 13 13 12 11 11 11 9 9 9 8 7 7 6 5 5 6 8 10 10 10 11
9 10 10 9 9 9 9 8 8 8 9 9 9 9 9 9 8 6 6 6 6 6 6 6 5 3 4 4 4 6 7 6 6 7 6 6 5 5 5 5 5 7 8 8 7 6 7 9 10 11 13 15 15 13 11 9 7 8 8 8 9 10 11 11 10 10 11 13 13 13 13 13 12 11 10 10 9 9 8 7 7 6 6 6 8 9 9 10
Wind_Direction
357 356 353 349 346 344 342 340 337 334 332 329 325 321 315 309 302 296 291 288 286 286 285 284 283 282 280 280 279 278 277 272 268 261 252 249 243 237 232 231 226 218 219 219 217 218 217 220 220 219 220 224 228 228 228 229 233 240 237 239 246 250 253 241 229 234 230 222 217 209 211 201 188 185 166 154 145 143 143 140 143 136 130 138 144 144 142 140
352 352 350 347 343 340 338 335 333 331 328 326 324 321 317 312 306 299 293 288 285 284 283 283 282 281 280 280 279 279 277 269 265 259 252 250 244 235 228 227 223 216 217 218 217 217 215 217 216 215 218 224 231 230 230 230 229 235 234 238 246 250 256 254 239 239 243 227 217 212 211 205 195 186 170 163 160 150 141 140 140 134 131 137 146 147 144 141
350 348 347 345 341 338 335 333 330 327 326 324 322 320 316 313 307 301 295 289 285 283 282 281 280 281 281 280 280 279 275 267 261 254 252 250 241 234 225 222 221 216 217 219 218 217 214 212 209 211 218 225 231 228 231 232 231 236 234 242 252 256 265 267 253 244 245 227 214 213 211 209 202 190 179 169 162 156 151 150 145 142 143 146 153 151 145 143
348 346 344 342 340 337 334 332 329 326 324 322 320 318 315 312 308 302 297 291 286 283 281 279 278 279 280 280 280 277 271 264 254 246 249 250 239 230 221 219 220 218 220 223 220 218 216 210 206 212 219 227 234 232 233 231 232 238 236 248 257 264 273 273 263 253 249 232 216 212 210 206 202 195 181 166 160 167 166 161 156 154 154 153 156 153 148 147
346 344 342 340 338 336 333 331 329 326 324 321 319 317 315 312 308 303 299 294 288 284 281 279 278 278 278 279 278 272 265 257 249 245 247 248 239 228 219 217 219 219 220 221 220 219 218 215 210 215 220 228 235 233 236 230 228 242 244 256 269 273 276 278 271 261 257 242 222 214 210 202 195 193 182 169 165 172 168 163 159 159 159 157 157 155 151 151
344 342 340 338 337 335 332 329 327 325 323 321 319 316 314 311 308 304 300 296 291 285 281 279 278 277 277 276 273 266 257 251 248 247 246 245 239 228 218 217 218 219 218 217 218 218 218 219 215 214 218 230 231 230 243 235 226 243 256 267 283 282 281 285 278 266 257 237 223 217 209 197 188 187 182 175 169 163 160 158 156 157 160 158 157 157 155 155
343 341 339 337 335 333 330 328 325 323 321 320 319 316 314 310 307 304 300 297 292 287 282 279 278 277 278 274 267 263 256 251 250 248 247 243 236 226 218 218 218 219 219 216 216 218 218 218 217 215 217 229 231 234 246 239 227 241 260 269 285 292 291 292 284 270 253 229 220 214 201 191 185 180 179 177 169 160 156 155 155 155 158 159 160 161 159 158
342 340 338 336 334 332 328 326 324 322 320 319 317 315 313 309 306 303 300 296 291 287 283 280 279 277 278 273 266 265 256 251 252 250 246 239 233 225 220 221 219 220 221 218 217 218 218 216 216 216 218 229 232 236 238 232 236 243 255 269 282 294 299 303 301 285 249 215 206 196 188 184 179 175 174 173 168 160 157 156 155 154 158 162 164 165 161 160
340 338 336 334 332 330 327 325 323 321 319 317 315 313 310 308 306 303 300 296 291 287 283 281 278 277 277 271 268 263 253 249 253 251 243 237 235 227 224 225 222 221 222 222 220 217 219 218 218 217 219 230 235 241 235 229 242 242 244 261 273 289 309 324 340 7 132 166 174 171 172 173 172 173 173 172 168 161 158 157 156 155 159 164 167 167 165 164
338 336 334 332 331 328 326 324 322 320 318 316 313 310 309 307 304 303 299 296 292 287 284 280 278 277 275 272 269 260 251 250 252 248 242 238 235 229 228 228 223 222 222 223 221 218 219 218 218 219 222 233 237 242 240 231 232 222 217 240 258 282 333 358 31 74 106 127 147 154 160 166 170 175 174 171 168 162 159 158 157 157 161 166 168 169 168 166
336 335 333 331 330 328 325 323 321 319 317 315 312 310 308 306 304 302 299 296 292 288 284 280 280 278 274 272 267 258 251 251 252 246 242 239 234 231 230 228 225 224 222 223 223 221 221 218 219 222 225 233 235 241 243 225 208 199 201 220 241 239 41 31 66 92 114 122 134 144 152 162 168 176 176 170 168 165 161 160 159 159 163 168 169 170 170 168
335 333 332 331 329 327 325 323 320 318 316 314 312 310 308 306 304 301 297 295 292 288 284 282 282 279 277 273 263 256 251 250 251 247 244 239 235 235 233 229 226 225 223 222 225 224 222 219 219 225 229 231 233 237 235 216 197 201 212 217 219 193 83 43 98 111 125 130 140 148 154 166 172 179 178 170 169 167 163 163 162 162 166 170 172 172 172 170
334 332 331 330 329 327 324 322 319 317 315 314 313 311 310 307 305 302 298 296 292 289 286 284 285 283 279 273 262 255 250 249 250 247 245 241 238 238 236 231 226 226 224 222 224 224 223 222 225 231 233 231 230 226 219 213 207 212 222 216 206 195 205 198 146 136 134 143 157 159 163 174 180 183 179 171 170 167 164 166 166 165 170 173 175 175 175 174
333 332 331 330 329 326 324 322 319 317 315 315 314 312 310 307 304 301 298 296 294 291 288 287 287 284 277 269 261 254 249 248 249 247 245 242 241 240 237 232 227 226 225 223 225 224 222 225 229 233 233 229 223 216 213 217 219 218 219 218 209 198 200 199 175 159 152 161 165 164 171 181 187 188 180 174 173 169 166 170 170 169 175 177 178 179 179 177
334 333 332 330 328 327 325 322 320 318 316 315 315 313 310 308 304 300 297 296 296 292 290 289 287 283 277 269 261 256 252 250 251 249 245 241 240 240 238 232 227 225 225 224 224 221 220 223 226 230 230 224 216 212 216 220 223 220 214 219 218 205 198 192 194 179 166 167 164 167 179 184 187 190 186 181 177 173 170 172 173 173 179 180 181 183 181 180
334 334 332 331 329 328 326 324 321 319 318 316 315 312 310 308 304 300 296 296 299 295 292 290 286 280 275 270 264 261 258 256 257 253 246 241 238 238 235 230 227 224 223 224 223 221 221 222 225 227 224 218 214 212 213 217 222 222 214 214 215 211 206 195 201 200 181 175 171 173 182 184 187 192 192 185 179 176 173 175 176 177 181 183 183 185 183 180
335 334 333 331 330 329 327 325 323 321 320 318 316 314 313 309 305 302 298 300 302 297 292 288 285 280 272 270 267 266 268 266 263 256 246 241 237 235 233 232 228 221 221 223 221 220 221 223 225 225 222 218 217 212 210 214 218 221 218 216 216 213 211 202 200 205 196 188 188 184 183 189 191 189 188 186 181 178 176 179 180 180 183 186 186 186 185 183
336 335 333 331 330 329 329 327 325 324 322 319 319 318 315 313 309 305 302 305 305 298 292 286 285 283 273 272 273 272 276 274 266 257 247 241 235 233 233 232 227 219 221 224 221 220 221 224 224 222 222 220 216 212 210 213 215 217 216 215 218 213 211 210 205 206 202 195 194 193 190 192 191 187 188 189 186 184 182 182 182 183 185 188 188 186 186 185
337 335 334 331 330 330 329 328 327 326 323 324 324 322 321 320 314 306 307 311 306 297 292 287 285 282 273 275 280 281 282 276 267 258 247 239 234 233 234 232 226 220 221 225 224 221 219 223 223 220 221 218 214 211 211 215 215 213 213 212 213 211 213 214 209 211 209 200 199 199 195 194 193 192 193 193 191 190 189 185 185 187 188 190 190 188 186 186
337 336 334 332 331 331 330 329 328 327 327 330 331 329 328 327 319 311 315 314 303 295 292 287 283 282 279 280 284 287 285 276 268 260 247 239 232 232 235 233 228 223 222 223 223 223 219 221 223 221 220 216 213 212 212 215 213 209 213 215 215 213 216 215 210 217 215 208 209 205 197 197 197 195 196 196 193 194 193 191 190 191 192 193 192 189 187 189
337 336 334 333 332 332 331 330 330 330 333 336 336 336 331 327 322 315 318 316 306 300 293 289 285 279 280 282 285 290 285 275 269 263 250 241 233 232 235 232 225 226 227 223 223 225 221 221 223 221 219 217 214 213 214 215 211 210 213 214 218 217 217 218 213 217 217 211 215 211 199 200 200 198 200 199 197 197 196 194 193 195 196 196 195 192 189 190
336 336 334 333 332 332 332 332 333 333 336 337 339 340 332 328 323 316 321 318 312 311 301 299 294 282 281 282 282 284 281 274 271 265 251 241 238 235 234 229 221 224 228 223 222 225 224 223 223 221 218 217 216 215 214 214 211 211 213 212 216 216 214 221 215 214 219 214 214 212 206 205 205 205 207 204 201 201 201 199 197 197 198 198 198 195 192 190
336 335 334 333 332 332 333 333 333 334 336 336 337 339 335 332 328 325 327 320 315 320 318 311 303 291 288 287 281 276 276 271 267 263 249 237 237 234 228 225 221 223 225 221 218 220 222 223 222 218 214 212 216 215 213 215 214 213 213 214 218 215 214 222 215 211 219 218 211 210 212 214 211 212 214 211 207 205 205 206 203 200 200 201 200 197 194 191
335 335 334 332 332 333 332 331 331 332 333 333 333 335 337 337 335 333 331 324 318 319 319 315 310 300 292 294 287 273 273 269 261 260 247 232 233 232 227 224 221 222 224 219 216 217 221 222 218 213 212 211 214 215 212 213 217 216 213 214 218 216 217 219 212 212 220 223 216 208 215 221 214 212 215 213 210 209 208 208 207 204 204 204 202 199 196 193
334 334 332 332 333 332 330 329 330 332 331 330 330 333 338 339 337 335 332 331 324 317 320 320 316 307 296 299 292 275 278 273 259 255 244 228 225 228 228 225 221 223 223 218 215 219 223 221 214 211 214 213 212 215 214 212 216 220 216 214 215 213 214 211 206 212 220 225 222 212 218 225 216 213 213 209 209 211 209 207 208 207 205 204 203 200 198 196
333 333 331 331 332 331 330 329 329 330 331 333 333 335 338 337 334 334 335 339 329 321 327 327 321 313 301 298 290 282 291 279 259 249 240 227 223 223 226 228 226 222 220 217 218 221 222 220 214 212 213 212 213 216 215 211 212 219 218 212 211 210 210 207 206 213 219 224 223 218 224 230 219 216 214 208 209 212 210 208 208 207 205 204 203 200 199 197
332 331 330 329 330 331 330 328 326 327 332 336 336 337 338 336 333 330 335 341 332 326 330 329 327 322 307 297 290 285 286 277 263 249 235 226 226 225 225 230 228 223 220 216 220 223 220 219 217 215 214 213 215 216 215 210 209 218 219 209 206 209 210 210 212 218 221 223 224 222 226 234 230 222 213 209 211 212 212 211 208 206 205 204 203 201 199 198
330 330 329 327 327 327 325 325 325 325 330 333 335 337 338 337 336 338 343 340 331 331 331 327 329 328 319 307 291 272 268 273 273 259 240 225 226 226 228 228 221 221 222 213 219 225 220 218 219 217 217 216 215 214 211 207 209 215 213 206 207 210 212 216 219 223 223 222 225 225 225 234 244 230 214 209 213 213 212 212 209 206 206 205 204 201 199 199
329 328 327 325 323 322 321 320 320 322 328 333 335 336 338 340 342 347 351 339 330 333 335 333 332 328 328 323 289 263 268 279 271 258 243 226 227 227 227 227 219 220 225 217 218 224 222 218 217 215 215 217 215 213 208 205 208 207 199 200 210 211 214 219 222 224 224 223 225 224 221 232 248 236 216 211 214 214 212 212 210 208 206 206 205 202 201 200
327 326 325 324 323 321 319 316 312 315 325 332 334 335 341 348 350 351 348 339 334 332 332 334 333 330 339 340 304 274 266 278 277 261 246 230 231 233 226 226 224 223 232 231 224 225 225 221 218 215 215 213 210 211 209 204 202 199 197 201 206 209 214 219 222 222 224 227 228 224 220 226 245 241 221 215 215 214 212 211 210 209 207 205 205 203 202 201
325 324 323 323 322 321 319 316 314 317 324 329 333 338 345 350 356 357 341 332 333 336 336 331 327 331 347 343 310 298 283 285 285 261 251 242 238 242 234 232 235 232 237 238 229 229 228 222 218 217 214 208 205 211 210 202 200 201 206 206 204 210 216 219 223 222 222 227 228 225 220 220 235 243 228 221 218 215 213 212 209 208 208 206 204 204 203 202
324 322 320 318 319 320 316 313 315 320 322 329 336 341 344 347 351 347 335 332 334 338 338 326 316 318 333 350 324 306 293 290 292 265 249 247 241 241 235 231 233 237 241 232 227 230 226 220 218 216 213 205 202 209 205 199 202 205 207 206 204 211 216 218 222 220 222 225 222 219 217 219 235 246 234 224 221 217 214 212 210 209 208 207 206 204 203 203
323 321 319 314 314 317 314 310 314 319 322 330 337 340 349 356 346 336 337 341 337 335 334 321 311 304 314 340 321 304 291 290 298 288 261 250 250 250 242 231 222 224 230 225 227 227 222 222 217 212 214 205 200 203 200 199 203 203 204 205 203 205 209 215 220 220 224 226 219 213 215 224 240 250 237 225 220 216 214 212 211 210 209 208 207 206 205 204
322 321 319 313 310 310 308 307 312 317 324 333 337 339 350 351 340 337 342 342 338 338 333 315 306 307 316 314 303 298 288 286 290 286 273 261 256 253 243 231 213 208 214 220 224 214 209 218 212 208 211 205 201 202 198 199 204 206 208 208 207 207 206 210 214 214 215 215 209 207 213 222 229 239 240 228 219 213 211 211 211 211 210 210 209 207 206 205
321 320 317 315 313 305 299 298 305 315 325 333 341 347 346 335 334 342 343 342 346 345 334 324 316 314 316 307 303 306 283 273 279 289 280 258 239 231 223 215 205 201 204 210 214 203 200 211 210 210 209 202 202 201 195 196 203 208 209 209 212 212 206 206 212 210 205 205 208 210 219 227 228 238 245 231 219 211 208 207 208 209 209 208 209 208 207 206
320 319 315 313 312 306 302 296 299 313 324 335 345 343 335 327 334 343 341 344 349 341 334 337 338 319 310 307 307 316 298 268 276 294 283 252 225 213 208 208 203 201 200 201 204 198 197 207 209 209 208 203 201 199 197 198 200 204 209 210 213 211 203 203 213 213 203 207 216 216 225 237 241 246 243 222 213 210 207 205 205 206 206 205 207 208 207 207
318 316 310 308 306 303 300 291 292 309 322 340 342 322 317 324 331 337 338 342 343 341 341 337 330 314 312 320 308 303 303 282 272 281 277 246 210 197 203 214 204 199 200 197 200 199 193 203 212 205 206 208 199 190 195 202 199 202 210 209 207 207 206 205 212 218 208 212 223 221 227 238 237 239 239 223 213 209 207 205 204 205 204 205 207 207 207 208
313 309 305 307 304 295 286 280 286 301 314 332 325 311 315 323 322 322 331 337 340 349 353 333 327 320 323 342 314 292 300 292 263 266 268 224 200 190 198 216 205 201 206 196 195 201 191 198 215 203 198 205 193 184 193 205 205 205 207 206 203 203 206 204 207 213 209 214 227 226 228 232 229 230 232 225 218 210 207 207 206 206 205 206 207 207 208 208
308 304 304 306 301 288 276 274 285 297 306 310 305 304 311 314 311 309 318 328 337 350 345 325 333 343 342 2 336 303 330 304 229 231 228 195 196 194 195 209 207 207 210 196 192 203 194 196 211 204 195 196 190 189 195 202 207 206 201 202 203 202 203 203 205 208 206 211 221 224 227 228 227 228 222 220 219 211 206 207 209 209 207 207 207 206 207 208
303 300 299 302 296 277 270 278 287 291 290 284 282 293 304 308 309 308 311 317 317 328 330 325 338 340 321 352 13 25 15 333 267 212 211 194 197 203 199 202 207 208 203 193 193 200 196 196 204 205 198 190 190 195 196 195 198 199 197 197 200 202 204 206 210 212 206 207 213 216 226 230 228 226 222 223 221 213 210 210 210 210 209 208 208 207 206 207
299 297 296 298 286 266 274 284 283 279 275 273 273 282 294 303 306 311 316 312 294 302 312 322 332 312 297 326 329 334 356 338 320 211 212 203 193 200 203 199 201 204 195 191 196 195 192 192 192 198 199 192 196 200 197 198 200 198 197 198 198 201 203 203 213 218 210 210 213 210 221 233 231 229 232 235 227 217 214 214 213 212 210 209 210 209 208 207
294 292 293 293 276 266 280 282 274 271 263 264 270 274 285 296 296 303 315 317 310 312 314 323 321 294 276 285 293 300 345 345 314 223 211 206 191 193 212 223 204 194 186 195 204 197 190 185 185 197 201 198 203 205 200 204 205 202 204 204 201 205 205 202 211 218 214 216 219 212 218 233 234 230 233 238 234 220 213 212 213 213 212 211 210 210 210 208
289 286 287 286 272 271 283 278 275 274 261 260 268 270 275 284 282 287 301 306 310 311 301 297 294 278 278 290 290 280 297 328 302 250 218 212 202 198 221 241 206 187 181 195 206 201 194 191 192 203 203 196 202 204 202 204 200 201 208 209 207 212 212 208 212 215 212 214 216 214 220 229 232 232 234 238 236 222 211 209 208 208 210 210 210 211 211 210
286 282 281 280 272 273 278 270 266 268 265 265 269 273 275 268 260 267 273 281 297 301 288 283 286 280 275 290 306 281 282 283 255 275 239 213 211 209 225 233 194 185 202 204 202 201 200 198 196 196 193 190 193 197 201 204 202 202 207 209 213 216 213 211 214 214 212 212 208 208 220 229 231 233 238 241 233 224 219 213 208 206 204 206 209 211 212 211
283 277 275 277 274 270 268 261 255 257 264 266 266 273 277 267 261 259 253 261 281 281 276 277 282 292 288 297 315 297 298 274 232 269 274 226 219 218 233 240 196 199 233 218 200 195 195 195 192 187 185 189 194 198 203 208 208 206 208 213 217 216 211 211 212 211 212 214 209 208 220 232 238 239 242 244 237 231 230 223 215 211 205 203 207 210 212 213
280 274 273 277 276 268 263 261 255 251 254 256 261 267 266 265 275 268 251 256 280 279 279 278 274 283 297 304 306 301 306 289 243 252 264 247 230 225 236 243 214 223 259 230 202 195 190 189 189 181 179 188 196 203 209 207 204 208 216 218 217 216 213 210 209 212 213 212 215 220 225 233 243 245 241 241 239 235 234 228 220 215 209 207 209 211 212 213
275 272 269 272 275 269 263 260 251 244 243 241 249 261 261 266 282 278 256 254 272 276 278 283 278 267 266 270 267 278 292 288 277 269 258 256 246 236 241 237 222 253 283 237 213 205 193 190 192 183 181 193 200 205 211 204 197 208 218 219 217 218 215 207 209 218 216 211 219 231 230 230 241 241 233 232 233 233 234 230 222 216 212 212 213 212 212 211
270 268 264 263 267 263 257 254 248 243 240 237 243 257 266 272 276 270 260 259 268 269 269 283 291 280 266 258 245 258 280 286 284 279 267 266 263 252 250 236 224 249 278 238 222 212 202 204 205 197 195 203 201 203 206 201 200 206 213 216 216 216 215 210 215 224 219 212 220 231 227 226 236 236 228 228 227 225 228 227 223 218 214 213 213 210 211 211
266 263 260 258 258 254 253 253 246 241 241 239 245 253 258 266 268 263 262 265 270 272 267 267 277 282 278 262 241 251 262 257 264 271 262 265 271 253 242 238 229 234 253 240 230 218 208 213 215 206 204 208 206 202 198 198 207 211 210 216 215 212 214 215 219 225 220 212 218 224 219 221 232 231 226 224 221 219 223 224 222 218 215 214 213 211 213 214
263 256 255 256 256 252 253 252 241 236 243 244 246 249 249 252 260 263 261 249 247 263 268 242 248 265 275 265 243 246 243 229 236 255 248 254 273 250 234 237 232 230 240 237 234 227 214 216 219 211 208 214 216 212 204 200 206 210 212 217 218 215 217 220 224 226 222 219 224 225 219 221 228 224 218 218 217 217 223 227 226 220 216 215 216 215 216 217
261 252 249 250 251 249 248 248 238 231 241 245 242 246 248 246 249 257 257 243 233 243 246 227 228 259 282 287 268 248 241 229 229 240 237 234 248 245 239 238 226 226 233 231 232 233 219 217 220 213 212 219 221 221 220 213 212 220 225 226 224 221 221 225 227 226 224 226 229 227 222 226 227 219 214 216 217 218 225 231 233 227 219 215 217 220 221 221
265 254 246 241 245 247 243 243 240 234 238 241 239 244 248 248 248 246 246 250 247 243 239 226 223 253 277 277 268 256 248 240 239 245 241 237 243 247 244 236 221 221 227 226 231 234 219 215 217 212 214 221 222 223 225 222 223 232 232 227 222 218 220 225 230 232 230 227 226 226 225 226 225 219 216 219 221 223 228 231 232 230 224 217 217 222 226 227